Weather in Kichketan

Russia / Republic of Tatarstan     56°04′22″N   52°50′29″E
temp.,
°C
wind,
m/s
gust,
m/s
humid.,
%
clouds,
%
prec.,
mm/h
press.,
hPa
HPBL,
m
19 january, wed
wed1900:00−2ssw81594100 0.3 1010806
03:00−2ssw81690100 0.6 1012738
06:00−2ssw71489100 0.1 1012630
09:00−3ssw61394100 0.1 1014608
12:00−2ssw61394100 0.4 1015652
15:00−3ssw61396100 0.8 1015626
18:00−3s61394100 0.3 1015553
21:00−3ssw71394100 1.1 1016644
20 january, thu
thu2000:00−4ssw71493100 0.2 1017571
03:00−4ssw61393100 0.4 1017547
06:00−5sw41095100 0.4 1018577
09:00−6ssw4109441 0.6 1019270
12:00−6s499590 0.1 1020377
15:00−7s489589 0.1 1020217
18:00−13s259976 0.1 102172
21:00−16s2310084 0.1 102127
21 january, fri
fri2100:00−18sse2210068 0.0 102213
03:00−17sse229863 0.0 102228
06:00−18sse229871 0.0 102317
09:00−15sse239677 0.1 102460
12:00−12sse259424 0.0 1023127
15:00−14ese22965 0.0 102410
18:00−18ese11995 0.0 102410
21:00−20e119855 0.0 102511
22 january, sat
sat2200:00−20e119794 0.0 102512
03:00−20e119599 0.0 102517
06:00−16e2391100 0.0 102564
09:00−12ese3791100 0.0 1025171
12:00−9se4892100 0.0 1026267
15:00−9ese3792100 0.1 1027227
18:00−12ese2493100 0.0 102763
21:00−13ese2593100 0.0 102881
23 january, sun
sun2300:00−15ese2294100 0.0 102922
03:00−14ese2393100 0.0 103043
06:00−15ese2193100 0.0 103119
09:00−12se2487100 0.0 1033112
12:00−9ese3585100 0.0 1033167
15:00−9ese2391100 0.0 103484
18:00−10e2392100 0.0 103547
21:00−10e1193100 0.0 103629